Theta_e
281 281 280 280 279 279 279 279 278 278 279 277 273 272 277 276 273 273 277 278 276 278 281 282 282 282 283 283 283 284 284 283 281 279 279 278 278 278 278 278 278 278 278 278 278 278 278 278 278 279 279 278 278 278 278 277 278 279 278 278 277 277 277 276 276 276 276 276 276 276 276 276 277 277 277 277 277 277 277 276 277 276 276 276 276 276 276
278 279 279 280 277 277 279 278 279 279 279 279 278 278 280 279 277 278 279 279 279 281 282 282 283 284 282 280 281 280 279 279 280 279 279 279 279 279 278 278 278 278 278 278 278 278 278 278 278 278 278 278 278 279 279 278 278 278 278 277 277 276 276 276 277 277 277 277 277 276 277 277 277 277 277 277 277 276 276 276 276 276 276 276 275 275 275
270 276 278 278 278 278 276 278 278 278 279 278 278 279 279 279 278 279 279 278 278 284 284 283 282 280 279 278 277 279 279 279 280 280 280 279 279 279 279 278 278 278 278 278 278 278 278 279 279 279 279 279 279 278 278 277 278 277 278 277 276 275 276 276 276 277 277 277 277 277 277 277 277 276 277 277 276 276 276 276 276 275 275 275 275 275 274
268 274 274 275 277 275 273 275 277 277 277 276 278 277 279 278 276 278 277 275 276 278 279 281 280 279 279 280 278 277 278 279 279 279 279 279 279 278 279 278 278 278 278 278 278 278 279 279 279 279 279 279 278 279 277 277 277 277 276 275 276 276 275 276 276 276 277 276 276 277 276 276 276 275 275 275 275 275 275 275 275 275 275 275 275 274 274
268 273 274 273 274 273 271 273 277 277 278 279 279 279 280 280 280 276 274 275 280 278 279 280 279 278 277 276 276 276 276 276 278 279 279 279 279 279 279 279 278 278 278 278 279 279 278 279 279 279 280 278 278 277 277 277 276 275 275 275 275 275 275 275 275 276 275 275 275 275 275 275 274 274 274 274 274 274 273 273 274 273 274 274 274 274 274
266 269 269 273 271 267 268 277 280 279 277 277 276 276 278 280 280 278 279 277 275 274 275 276 277 276 276 276 277 276 276 276 275 275 275 276 277 278 278 278 278 278 278 278 279 279 279 279 279 279 277 277 277 276 277 275 274 275 274 274 274 274 274 274 274 274 274 273 273 273 273 273 273 273 272 272 272 272 272 273 272 272 272 272 272 272 273
266 265 265 268 265 268 278 279 279 279 279 278 277 278 278 278 275 275 275 275 273 277 277 278 278 277 276 276 275 276 275 276 276 276 277 276 275 276 276 276 276 277 277 277 277 276 277 277 278 278 278 278 277 276 274 274 274 274 274 273 273 274 274 274 273 272 273 272 271 271 271 271 271 270 270 271 271 271 271 271 271 270 270 270 271 271 271
271 270 268 262 264 273 274 275 275 277 276 277 276 274 277 277 276 277 276 276 277 276 276 276 275 274 275 274 275 275 275 276 277 276 276 277 276 276 277 277 278 277 277 277 277 277 278 278 277 277 276 276 275 274 274 273 273 272 272 272 272 272 271 272 271 272 270 270 269 269 269 269 269 269 269 269 268 269 269 269 269 269 269 270 269 269 270
267 269 268 269 269 271 274 274 274 276 275 274 273 269 272 274 271 273 273 274 274 273 273 273 274 274 272 272 275 275 275 276 276 277 277 277 277 277 278 278 278 278 278 277 277 278 277 276 276 275 274 274 274 272 272 272 270 270 270 269 270 270 270 270 269 269 269 268 268 267 267 267 267 266 267 267 267 267 266 266 266 266 267 267 268 268 267
273 265 266 265 263 263 268 272 272 276 276 275 274 266 265 272 269 270 273 273 270 271 271 272 273 272 271 270 273 274 274 275 277 277 278 278 278 278 279 278 278 278 277 277 277 277 275 274 274 273 273 273 271 271 270 270 268 269 267 268 269 268 268 267 267 267 267 266 266 266 265 264 264 265 265 265 264 265 264 264 264 265 265 265 266 266 266
273 268 266 265 263 264 268 267 272 275 273 275 275 269 266 270 270 269 273 271 271 272 273 271 273 270 266 268 272 275 274 276 278 278 278 278 279 279 279 279 278 277 278 277 276 275 274 273 272 272 271 270 270 269 269 269 268 267 267 268 267 266 267 267 266 265 265 264 264 264 263 263 263 263 263 263 263 264 263 263 263 264 264 263 263 264 264
272 270 268 265 267 265 269 271 274 277 276 276 273 263 260 271 270 270 271 270 271 272 272 272 272 271 264 270 273 275 276 277 277 278 278 277 277 278 277 276 276 277 277 276 274 273 272 272 271 270 269 269 267 268 268 268 266 265 267 266 266 266 265 265 264 263 263 263 262 262 262 262 262 262 262 262 262 262 262 262 262 262 262 262 262 262 263
272 273 269 270 270 272 270 273 275 275 276 273 264 263 268 271 271 272 273 273 273 273 272 273 270 273 276 277 277 276 276 276 277 276 275 276 276 277 276 277 279 276 275 275 273 272 271 271 270 269 268 267 266 266 267 266 264 266 266 265 265 264 264 263 262 262 261 261 261 261 261 261 261 261 261 261 261 261 261 261 261 261 260 261 261 261 262
269 270 269 269 269 271 271 273 276 276 273 263 266 272 271 273 273 273 275 275 274 273 274 274 275 277 277 277 276 275 275 276 277 277 276 276 276 276 276 277 276 275 273 272 271 270 269 269 268 267 265 265 265 265 264 263 264 265 264 264 263 261 261 261 260 260 259 260 260 260 260 260 260 260 260 261 260 260 260 260 259 259 260 260 260 260 261
268 266 266 265 262 269 274 275 274 275 268 268 274 272 274 273 274 274 273 275 276 274 274 275 276 276 276 275 275 276 275 275 276 276 277 276 276 275 275 273 274 273 271 270 269 268 268 267 267 266 263 263 262 263 262 263 264 263 263 262 261 261 260 259 259 259 259 259 259 259 259 259 259 259 259 259 259 260 259 259 259 258 259 259 259 259 260
260 264 264 263 269 274 276 276 270 272 276 275 274 275 272 275 274 274 275 276 277 276 276 276 276 276 276 275 275 275 274 274 275 275 275 275 275 274 272 272 271 270 269 268 267 267 267 266 264 264 262 261 261 261 262 263 263 261 260 260 260 259 258 258 258 258 258 258 258 258 258 259 258 258 258 259 259 259 259 259 258 258 258 259 258 258 258
267 264 263 269 274 275 276 277 276 275 277 276 275 277 277 276 276 276 276 277 277 277 277 277 277 277 276 276 276 275 275 275 275 275 275 275 275 273 271 269 268 267 267 266 265 265 265 263 264 262 261 260 260 260 262 261 260 260 259 258 258 257 257 257 257 258 258 258 258 258 258 258 258 258 258 258 258 258 258 258 258 257 257 258 257 257 258
272 272 272 274 273 274 275 277 278 277 277 277 275 276 275 276 277 277 277 277 277 277 277 277 276 276 277 276 274 274 274 274 274 274 274 272 270 269 268 266 266 264 264 262 262 263 263 262 262 262 260 260 258 260 261 260 259 259 258 257 257 257 257 257 257 257 257 258 258 258 258 258 258 258 258 258 258 258 258 257 257 257 257 257 257 257 257
269 264 273 274 276 276 277 277 276 277 277 278 278 276 277 277 277 277 277 278 278 278 277 276 277 276 275 274 275 274 274 274 274 274 273 270 268 267 265 266 264 263 261 261 261 261 261 261 260 260 259 259 260 260 258 260 259 257 256 256 257 257 256 257 257 257 257 257 258 258 258 258 258 258 258 258 257 257 257 257 256 257 257 257 257 257 258
271 271 274 273 275 276 277 277 275 275 276 277 277 278 278 278 278 277 278 277 277 276 275 276 276 276 275 274 274 274 274 274 274 272 270 267 266 265 265 265 262 261 260 261 260 260 260 261 260 259 258 257 258 257 257 258 256 255 256 256 256 256 256 256 257 257 257 258 258 257 257 257 257 257 257 257 257 257 256 257 256 257 257 258 258 259 260
273 275 275 276 277 276 276 276 276 277 278 277 277 276 276 276 276 276 276 276 277 276 277 276 275 274 274 274 275 274 273 271 270 269 268 266 266 265 264 262 261 262 261 260 259 259 259 260 258 257 257 258 257 258 258 257 256 255 256 256 256 255 256 256 256 257 257 257 257 257 257 257 257 257 257 257 257 258 259 260 260 260 260 262 263 263 263
268 268 273 274 267 270 275 276 277 278 277 277 277 277 276 275 275 275 275 275 275 276 276 276 275 274 274 273 272 271 272 271 268 266 266 264 263 262 262 261 260 260 260 259 258 258 258 259 257 256 256 258 258 258 257 256 255 255 256 256 255 255 256 256 256 257 257 257 256 256 256 256 256 257 260 265 263 261 261 265 268 269 269 265 265 265 265
270 275 277 277 277 277 278 278 278 277 277 277 276 277 277 277 277 277 276 275 273 274 274 272 273 272 273 272 270 269 268 267 266 266 265 264 263 262 261 260 259 259 259 259 258 256 257 257 256 255 256 257 256 257 257 257 256 255 255 255 256 256 256 256 257 257 257 256 256 256 256 257 256 256 256 258 264 266 267 267 268 269 270 271 271 271 267
277 278 278 276 275 275 277 278 278 277 277 276 276 277 277 277 277 275 275 276 276 275 273 269 269 272 271 269 269 269 266 264 263 263 263 263 262 261 260 260 259 258 257 257 257 256 256 256 255 255 255 256 256 256 256 255 255 255 254 255 255 256 256 256 257 257 257 256 256 256 256 257 256 256 256 256 257 263 266 267 268 269 269 270 270 271 271
276 280 279 276 275 277 278 277 277 277 277 276 276 276 276 276 275 274 274 274 274 275 273 271 266 266 268 265 266 268 266 263 262 263 263 262 263 262 260 259 258 257 257 257 257 256 255 255 255 255 255 256 256 256 256 255 255 254 254 255 255 255 256 256 257 257 257 256 256 256 256 256 256 256 256 256 255 256 259 265 267 268 268 269 269 270 270
280 280 280 279 275 277 277 276 276 276 275 274 274 273 274 275 275 272 274 274 271 269 271 269 266 263 264 264 263 261 261 261 263 263 260 260 260 259 259 257 258 258 257 256 256 255 254 254 254 254 255 255 256 256 255 255 255 254 254 254 255 255 256 256 256 256 256 256 256 256 256 256 256 256 256 256 256 256 257 257 259 262 266 267 268 269 269
279 279 278 276 276 277 278 277 278 280 278 276 275 277 274 270 270 268 264 263 263 264 265 265 265 262 260 260 260 260 261 261 260 260 259 259 258 259 258 256 257 256 256 255 254 255 256 256 255 254 255 255 255 255 255 254 254 254 254 255 255 256 257 257 256 256 256 256 256 256 256 256 256 256 257 257 258 257 257 256 256 257 257 259 264 268 265
279 278 278 276 276 277 278 279 278 278 277 275 274 272 266 265 264 263 263 264 262 259 260 258 260 259 260 258 258 259 259 258 258 258 258 258 258 257 256 255 256 255 254 254 254 255 255 254 253 254 255 255 256 255 254 253 253 253 255 255 255 255 256 256 256 256 256 256 256 256 256 256 257 258 258 258 257 257 257 257 257 257 258 259 260 264 268
278 278 278 279 279 280 277 270 271 271 270 267 266 265 265 265 263 264 265 265 263 261 261 258 258 258 260 258 257 258 257 257 257 257 257 258 257 256 256 255 254 253 253 253 253 253 253 252 252 254 255 255 255 254 253 252 253 254 255 255 255 255 255 255 255 256 256 256 256 256 259 258 258 257 257 257 257 257 257 257 257 258 258 259 259 260 264
279 279 276 276 275 274 274 274 274 272 271 267 266 263 264 267 265 266 266 264 263 263 261 258 257 256 256 256 255 255 256 255 256 256 257 256 255 254 254 254 252 252 252 252 252 252 253 253 254 254 254 255 256 255 253 251 253 253 254 254 254 255 255 256 256 257 257 256 256 258 257 257 257 257 257 257 257 257 257 257 258 258 258 258 260 259 259
276 274 271 271 270 269 272 274 275 273 269 264 265 265 262 263 266 267 266 265 263 263 259 257 256 255 254 254 253 254 254 254 254 254 254 254 254 254 254 253 251 251 251 253 253 251 253 253 253 254 255 255 254 254 252 252 253 254 254 255 254 256 257 258 258 257 257 256 256 256 256 256 256 256 256 256 257 257 257 257 257 257 258 258 258 259 260
275 269 267 268 268 268 269 269 268 267 266 264 262 264 264 265 265 267 265 263 262 260 256 255 255 255 253 250 252 252 252 252 252 251 251 252 253 253 252 252 252 253 253 252 252 253 253 252 253 254 255 254 254 252 253 254 254 253 253 255 255 255 255 257 256 256 256 256 256 255 256 256 256 256 256 256 256 256 257 257 257 257 257 258 258 259 260
271 270 268 266 263 263 265 265 266 267 264 263 265 265 263 262 262 262 261 260 257 256 256 255 254 252 250 250 250 251 251 252 251 251 250 251 251 251 252 251 251 251 252 252 253 253 253 252 253 254 254 254 253 253 252 253 253 253 253 253 253 254 255 256 256 256 255 255 255 255 255 256 256 256 255 256 257 257 257 257 257 257 257 258 258 259 259
274 275 277 275 273 273 271 270 267 266 262 262 260 259 259 258 257 256 256 255 255 254 254 253 252 249 249 250 249 248 248 249 250 250 251 250 249 250 251 253 250 249 251 252 252 253 253 254 254 253 254 254 253 252 252 252 253 252 252 252 253 253 254 254 255 254 254 254 254 255 255 255 255 256 256 256 256 256 257 257 257 257 257 257 257 258 260
268 263 260 257 258 259 263 265 265 265 264 262 256 255 256 256 255 255 255 255 254 254 252 252 252 250 250 249 248 247 247 249 251 251 251 251 251 251 251 248 248 248 249 250 252 252 253 253 253 252 253 253 253 252 253 253 251 252 250 252 253 254 254 254 254 254 254 254 254 254 255 255 255 256 257 256 256 256 256 256 256 257 257 257 257 257 258
261 259 256 254 253 253 253 254 258 260 262 263 260 257 254 253 253 254 254 253 253 254 254 253 252 250 249 249 249 248 251 251 251 251 251 251 250 250 249 246 247 247 248 249 251 252 253 251 255 256 255 254 254 252 252 252 250 251 252 253 253 254 254 254 254 253 254 254 254 254 254 255 256 256 256 255 255 255 255 255 256 256 256 256 257 257 257
256 258 255 254 253 252 251 252 251 254 254 254 254 253 252 251 251 250 251 252 252 252 251 250 251 251 249 249 250 250 248 249 249 248 248 247 246 246 246 246 246 247 248 248 249 246 246 247 255 257 255 253 253 252 253 256 252 251 252 252 252 253 253 252 252 252 253 254 254 254 255 254 253 254 255 254 254 254 255 255 256 256 256 256 257 256 256
253 254 253 252 251 250 250 248 248 250 251 250 249 250 249 248 249 249 249 250 250 251 251 250 250 250 250 250 247 246 247 247 247 247 246 246 245 245 244 245 247 248 248 249 247 246 248 252 256 254 249 250 252 251 254 256 256 254 252 253 253 252 252 252 252 253 253 253 254 253 253 253 253 252 253 253 253 254 255 255 256 256 256 256 256 256 256
252 252 251 251 250 249 249 249 248 247 248 248 247 247 249 250 250 248 250 249 248 250 249 249 249 250 249 247 248 246 246 246 246 245 245 245 245 244 247 247 248 249 250 251 251 252 252 254 252 250 249 249 252 252 254 256 256 253 252 252 252 251 252 252 252 252 253 253 252 252 252 252 252 252 253 253 253 254 255 255 255 256 255 255 255 255 256
252 251 250 250 250 249 249 248 248 247 245 246 247 247 247 248 249 248 248 249 250 251 249 249 248 247 246 246 245 246 246 245 245 244 244 244 243 244 246 247 248 249 251 253 252 251 253 255 252 248 249 250 251 251 253 255 256 254 253 252 251 251 251 252 251 251 251 251 252 253 252 252 252 253 253 253 253 253 253 254 254 255 255 255 255 255 256
251 251 250 250 250 249 249 249 248 246 246 245 245 246 247 247 249 248 247 246 248 249 249 247 246 247 247 247 246 246 245 246 245 245 244 243 243 245 245 247 247 245 248 248 248 249 253 254 251 249 249 253 253 255 253 255 255 253 252 252 251 251 250 251 250 251 251 251 251 251 251 251 252 251 252 252 252 252 253 253 253 254 254 254 254 254 255
252 252 251 251 250 250 249 249 249 249 246 245 247 246 246 249 247 246 246 246 247 249 246 245 248 248 247 246 246 245 244 245 244 244 243 245 246 245 246 249 249 249 253 253 254 253 250 249 250 254 251 253 253 256 256 255 254 253 251 250 250 250 250 250 250 250 250 250 250 249 250 250 250 250 251 251 251 252 252 252 252 253 253 253 253 254 254
251 251 251 250 249 248 248 248 249 248 247 249 245 244 245 245 246 245 244 245 245 245 246 244 246 248 247 245 243 243 244 244 244 244 244 245 246 247 248 250 246 246 255 253 251 249 248 248 248 249 255 256 255 256 256 255 255 253 251 249 250 250 250 249 249 250 249 248 248 249 248 250 250 250 250 250 250 251 251 251 251 252 253 252 252 253 254
250 250 250 249 249 249 248 247 247 247 246 248 248 246 244 244 244 245 245 245 245 246 247 246 244 244 244 243 241 243 245 245 244 244 243 247 249 247 248 249 249 251 255 253 252 251 250 251 250 253 256 256 256 255 255 255 254 253 250 249 249 249 249 248 249 248 248 249 249 248 249 250 250 249 249 250 250 250 251 251 251 251 252 252 252 253 253
249 249 249 249 248 248 249 247 247 247 248 247 247 244 244 243 243 243 244 244 244 245 246 247 247 248 248 245 246 246 247 247 247 246 245 248 246 250 249 253 252 251 253 256 252 252 251 251 254 256 256 256 255 255 255 254 253 252 252 250 248 248 248 248 249 248 249 248 248 249 249 249 248 249 248 249 251 251 250 251 251 251 251 252 252 252 252
248 248 248 248 247 246 248 246 246 246 247 246 246 247 247 244 243 242 242 243 243 246 248 248 248 249 249 248 248 248 245 247 247 248 249 250 249 250 249 254 251 255 256 256 253 252 251 255 256 256 256 255 255 255 254 253 253 252 251 248 247 249 248 248 248 248 247 248 249 249 248 248 248 248 248 248 249 250 251 252 252 251 250 251 251 252 252
248 247 246 245 245 243 244 245 246 246 246 246 243 244 245 245 244 243 244 244 244 245 245 247 248 249 249 249 247 245 247 247 248 248 249 250 252 254 255 257 257 257 256 253 253 252 253 254 255 256 256 255 255 253 252 252 250 249 250 247 248 247 248 247 247 247 246 247 249 250 251 250 248 248 249 250 249 249 250 250 250 250 251 252 252 252 252
247 245 244 242 242 241 241 241 241 240 241 242 243 243 243 243 242 243 243 244 245 243 244 244 246 246 246 246 246 248 248 247 247 248 247 247 249 252 253 253 255 256 257 256 256 255 256 256 255 255 255 255 255 253 252 251 251 251 247 248 246 247 246 247 247 246 247 248 248 247 247 247 247 247 248 248 248 249 249 250 250 250 251 251 251 251 250
243 243 242 241 241 240 240 241 242 244 241 241 243 243 244 244 243 244 245 246 243 243 244 243 243 244 244 248 247 248 249 251 250 250 251 252 253 252 253 256 257 257 256 254 254 254 255 255 255 255 255 254 252 250 249 249 250 250 250 249 248 248 248 248 246 247 247 247 247 248 248 248 247 247 247 248 248 248 249 249 249 249 250 251 250 250 250
241 242 242 241 240 240 240 242 242 241 240 244 242 242 244 244 244 245 246 246 246 249 245 244 245 246 247 247 246 248 250 251 253 255 255 255 254 256 255 255 255 256 256 255 254 254 255 255 255 254 254 253 252 252 252 251 250 250 249 250 249 248 249 250 252 251 249 248 247 247 248 248 247 248 249 248 248 249 248 249 249 250 252 251 250 250 250
243 243 243 244 243 243 240 242 242 241 240 242 242 244 246 246 245 248 247 248 245 246 246 246 246 247 247 247 248 249 251 252 254 256 256 256 256 257 257 257 256 256 256 255 255 255 255 255 254 254 253 253 253 252 252 251 250 250 251 250 250 249 249 249 248 247 246 247 247 247 247 246 246 246 246 247 248 248 248 248 248 248 248 248 249 249 249
243 241 242 242 242 242 239 239 239 242 242 244 243 244 245 245 246 246 246 252 247 246 246 245 249 247 248 250 252 252 253 254 255 255 256 256 256 256 256 256 256 255 255 255 255 255 254 254 253 253 253 253 252 251 251 251 251 250 250 250 250 249 249 249 248 247 246 247 247 247 247 247 246 246 247 246 247 247 247 247 247 247 248 248 248 248 248
Wind_Speed
5 3 3 1 1 2 3 6 7 10 12 8 6 4 5 6 9 14 11 11 9 9 12 9 5 6 9 10 11 10 10 6 2 4 7 7 7 6 6 7 7 6 6 6 6 5 5 5 4 4 4 4 3 3 3 3 1 2 1 0 1 1 1 3 4 4 4 4 4 5 5 6 7 7 7 7 8 9 8 8 8 8 8 9 10 11 10
4 6 3 1 1 2 4 6 9 10 12 12 7 9 13 12 10 9 11 10 14 12 12 6 7 7 5 3 2 1 3 4 6 6 7 8 8 7 6 7 7 6 7 6 6 5 5 5 6 5 4 4 4 4 4 3 1 3 1 1 2 3 4 4 5 5 5 6 6 6 7 8 8 8 8 9 9 9 10 9 8 9 9 10 10 11 13
3 4 2 1 1 4 7 10 12 13 12 8 9 13 11 10 8 12 13 13 15 11 6 5 4 2 3 2 3 3 4 6 6 7 7 7 6 6 7 7 8 7 7 6 6 6 7 7 7 7 6 6 5 4 4 4 3 3 0 1 2 3 4 4 5 7 8 8 8 9 9 9 9 9 10 9 10 11 11 10 10 10 10 11 12 12 13
5 3 2 0 0 2 5 10 16 15 10 11 12 10 8 10 13 13 9 9 11 5 3 1 0 1 1 1 2 3 3 4 5 6 7 6 7 8 9 9 8 7 8 8 8 9 9 8 7 6 6 6 5 5 4 3 3 1 1 2 2 2 3 4 5 7 7 8 9 10 9 9 9 8 8 10 11 11 11 11 11 10 12 13 13 13 12
5 6 5 3 2 4 8 15 22 15 13 13 9 8 8 10 9 9 10 12 7 6 6 6 2 2 1 3 3 2 2 3 6 7 7 7 7 8 9 9 8 8 9 9 10 10 8 7 6 8 8 5 5 4 3 3 2 2 2 2 2 3 4 4 5 6 7 7 8 9 8 8 7 8 10 11 11 10 10 9 10 12 14 14 14 14 14
3 2 3 2 2 7 14 4 3 9 10 9 11 12 13 14 9 8 7 7 3 3 2 4 4 5 4 4 3 2 5 3 3 4 4 6 7 7 7 7 7 8 8 7 8 8 8 8 7 4 4 4 3 3 2 2 3 2 2 3 2 4 5 5 5 5 6 6 7 7 6 7 8 9 9 10 9 8 9 11 12 13 14 15 15 15 15
3 1 3 1 10 16 6 0 4 5 9 9 12 13 11 9 7 7 7 5 3 7 5 6 8 7 2 1 3 1 3 3 4 5 6 5 5 5 4 4 5 6 6 5 5 4 4 2 3 5 2 1 2 4 3 3 3 3 3 3 5 5 6 5 5 5 6 5 6 6 6 7 8 9 9 10 11 10 10 12 13 13 14 15 15 15 15
2 1 4 4 12 5 6 8 3 3 1 6 2 7 8 9 9 9 5 6 7 5 7 5 3 4 1 0 2 2 4 5 5 5 6 6 4 4 5 5 6 4 4 5 5 3 2 4 3 3 3 3 5 3 3 3 3 3 4 4 5 5 5 5 5 5 4 6 7 8 9 9 9 10 10 10 11 10 10 11 11 12 13 13 15 16 15
7 5 8 13 5 12 13 11 5 4 7 3 5 8 7 5 2 3 2 3 3 4 3 3 2 2 2 2 6 3 4 6 4 5 6 5 5 6 6 5 6 5 4 3 3 5 4 4 5 4 3 4 4 3 3 3 4 3 3 4 4 4 4 4 4 5 6 7 9 9 9 10 11 11 11 12 11 8 11 12 13 13 13 13 13 15 16
4 5 7 5 2 8 11 7 1 0 3 6 4 6 6 6 5 3 4 5 5 3 1 2 2 3 2 4 7 3 3 3 2 3 5 5 6 6 7 5 3 1 3 5 4 7 7 6 4 3 3 4 3 3 4 4 3 3 3 4 4 4 4 4 5 5 6 6 8 9 9 10 12 12 11 10 10 9 11 13 14 13 12 14 14 13 14
4 4 8 8 6 9 6 3 4 4 5 5 2 4 7 4 1 3 6 4 5 8 7 4 4 2 3 7 7 7 3 3 2 3 5 5 6 6 6 7 4 6 6 7 7 6 7 6 3 3 4 4 5 3 2 2 2 3 4 4 3 4 4 4 5 5 4 5 7 8 10 11 10 12 12 11 11 10 10 11 13 12 12 13 13 12 10
8 7 8 10 5 5 5 7 4 5 4 4 7 6 7 2 3 4 5 4 6 7 6 6 7 8 7 7 9 5 8 7 5 4 6 5 5 6 7 3 4 6 6 7 6 6 6 5 3 4 4 4 3 2 1 1 2 4 4 3 3 4 5 5 4 4 4 6 7 8 10 11 10 10 10 11 11 11 11 10 12 12 12 12 15 14 11
13 16 9 5 6 4 3 7 6 5 1 2 2 12 11 5 5 5 6 6 8 7 7 6 7 9 10 9 8 6 5 2 5 5 4 6 5 6 4 3 5 5 3 5 7 6 5 3 3 3 4 4 3 1 1 2 4 3 3 3 4 4 5 5 4 5 5 5 8 9 8 10 11 10 9 10 11 11 12 12 11 12 12 12 13 14 10
11 9 11 12 4 5 8 6 9 6 2 3 11 9 4 6 6 5 7 6 7 7 9 9 9 10 10 7 3 3 4 6 6 5 6 5 2 1 2 5 5 6 6 7 7 5 3 4 4 4 4 3 1 2 2 4 4 3 4 4 4 4 5 5 5 5 5 6 6 8 8 8 10 11 9 10 10 11 11 12 14 14 13 12 13 13 11
2 3 8 5 8 3 8 6 2 1 4 7 6 2 2 4 6 6 5 7 8 8 8 9 11 10 7 5 6 6 5 4 6 6 6 6 5 4 4 3 2 6 6 5 5 4 3 4 4 3 4 3 2 2 4 5 3 4 4 5 5 5 6 6 6 6 6 6 8 6 8 9 10 12 10 10 11 10 12 13 14 14 13 12 12 13 11
6 7 9 7 7 5 7 9 7 4 10 6 5 5 4 4 5 5 6 7 8 9 10 10 10 10 9 6 5 5 5 5 6 5 5 4 1 3 2 4 3 5 6 5 4 3 3 3 3 4 5 3 2 3 6 3 3 4 4 4 5 6 6 6 7 7 6 7 7 7 8 9 9 10 11 10 10 9 10 11 12 13 11 11 12 12 12
8 7 5 6 5 6 5 6 5 6 7 5 6 7 6 5 6 5 5 8 8 8 10 9 9 8 7 8 7 5 5 5 5 6 7 6 6 6 6 5 4 4 5 5 4 2 2 3 4 4 4 3 4 5 4 3 4 5 5 5 6 7 7 7 7 7 7 7 8 7 7 7 9 9 10 9 10 9 9 11 11 12 12 11 12 13 13
2 2 2 1 2 2 3 6 7 8 8 6 4 6 5 6 7 7 7 7 8 8 7 8 6 8 8 7 6 6 6 5 6 4 1 2 4 6 6 4 4 4 4 3 3 2 1 2 3 3 2 1 4 6 4 3 4 4 5 6 7 7 7 7 8 8 10 9 7 7 7 6 7 8 9 10 10 10 10 11 11 11 13 11 12 11 13
1 6 2 9 9 7 9 10 6 6 6 9 7 7 8 7 7 7 7 9 9 9 7 9 10 10 8 8 8 6 5 5 5 5 5 3 4 6 4 3 4 3 2 1 1 0 0 0 1 1 1 2 4 4 4 4 4 5 5 6 8 7 8 8 8 8 9 9 9 7 6 7 6 7 8 8 9 10 11 12 12 11 12 12 12 12 12
7 9 5 5 6 9 9 7 5 7 10 10 8 8 8 8 8 8 9 8 8 7 7 9 10 10 7 7 7 5 6 6 5 4 6 7 4 3 4 4 4 3 2 0 0 1 1 1 0 1 2 3 4 4 4 4 4 4 5 5 7 8 8 8 8 7 8 9 10 9 8 7 8 8 7 8 9 11 12 12 12 13 12 13 13 13 13
9 8 9 12 11 11 12 10 8 9 10 9 8 9 10 9 8 8 7 7 9 8 10 8 8 7 7 7 8 7 5 3 4 6 7 5 5 5 3 2 2 1 0 0 1 1 1 1 1 2 3 4 4 4 4 4 4 5 6 6 6 7 7 7 8 7 7 8 8 9 10 8 7 7 9 10 11 12 11 10 11 12 13 13 12 13 12
7 9 12 5 3 8 11 11 13 13 12 9 9 8 8 8 8 8 8 9 8 9 9 9 9 9 7 7 5 5 5 6 6 6 6 5 5 4 3 3 1 0 1 1 1 1 2 1 1 2 4 5 4 5 4 4 4 5 7 7 6 7 6 7 8 8 8 8 8 9 9 10 10 8 9 19 17 14 13 20 28 29 25 17 16 14 13
12 15 15 9 12 13 12 11 10 9 7 7 10 11 12 11 11 11 10 9 5 5 6 4 7 7 7 7 5 5 4 6 6 6 7 6 4 4 2 1 0 0 0 0 1 2 3 1 2 3 4 5 5 5 5 5 4 5 6 7 7 7 7 7 9 10 9 9 8 8 9 9 9 11 11 9 18 27 26 26 26 28 28 31 32 31 22
13 13 12 6 8 10 9 10 9 9 8 8 10 10 9 10 10 9 8 9 9 7 6 4 4 6 6 6 6 6 4 4 5 4 3 3 2 2 1 1 1 1 1 1 2 3 2 3 4 4 5 6 5 5 5 5 5 5 5 5 7 8 8 8 10 9 8 9 9 9 9 8 9 10 11 13 12 16 24 25 26 28 28 29 30 29 31
15 14 9 5 8 10 10 9 8 8 8 6 7 8 10 9 9 8 9 7 7 9 8 8 4 2 5 5 5 6 6 5 4 4 3 2 2 1 1 1 1 1 1 1 1 2 3 4 4 4 6 7 5 5 5 5 5 5 5 5 7 8 8 9 9 10 9 9 9 9 9 10 10 10 11 12 14 15 14 21 27 27 27 27 28 28 29
14 14 13 8 4 8 8 4 7 8 7 6 5 5 6 8 9 6 8 9 8 6 7 6 6 2 3 6 4 4 4 4 4 3 2 1 1 0 1 1 1 0 0 1 1 3 4 4 5 5 7 8 6 6 5 5 5 5 5 6 6 7 8 9 10 9 9 8 9 9 9 9 10 10 11 11 13 13 14 14 16 21 25 26 26 27 28
11 10 7 8 11 14 12 12 13 12 8 6 8 10 7 4 3 3 2 2 2 2 4 5 5 5 3 3 5 3 5 3 1 1 2 1 1 1 0 1 1 1 1 1 3 4 4 5 4 5 8 8 6 5 5 5 5 5 5 6 6 8 13 11 7 8 8 9 9 9 9 9 10 11 11 11 11 12 12 13 14 14 15 19 24 28 24
10 8 9 12 14 15 14 11 9 9 8 8 7 6 4 4 4 4 5 3 2 2 3 4 7 6 5 3 5 3 2 3 4 2 1 2 1 1 1 1 1 1 2 2 4 4 4 4 4 6 9 7 5 5 5 5 5 5 6 6 7 7 7 8 8 7 8 8 8 9 9 10 10 11 11 11 12 11 12 12 12 13 14 14 14 21 32
11 10 10 13 15 14 7 1 1 3 5 0 1 3 6 6 6 6 7 7 5 4 3 1 1 3 5 4 4 4 4 3 3 2 1 0 1 1 1 1 1 2 3 4 4 4 4 4 4 7 10 7 6 5 5 4 4 5 6 6 6 6 6 7 7 7 8 9 8 9 11 11 10 11 11 11 11 11 11 12 12 12 13 14 13 16 19
14 10 6 7 7 6 7 8 9 8 8 6 6 5 5 7 7 8 8 5 5 7 4 4 4 3 4 5 4 4 4 4 2 0 0 0 1 1 1 2 3 2 2 3 4 3 4 5 6 8 9 6 5 5 5 4 5 5 6 7 6 6 6 7 7 8 9 9 9 13 11 9 9 10 11 10 11 11 12 12 13 13 13 14 13 13 14
7 5 6 5 6 5 8 12 11 9 6 5 6 6 4 4 7 7 7 6 4 4 4 5 5 5 4 4 3 2 2 1 0 0 1 1 1 2 2 2 2 4 4 5 5 5 6 6 6 9 7 5 5 5 4 4 5 6 6 5 5 9 13 15 12 9 8 8 9 9 9 9 9 10 11 11 11 11 11 11 11 11 10 11 11 12 11
8 5 5 5 5 6 8 7 6 5 6 4 4 7 11 11 11 10 5 5 7 5 5 5 6 6 5 3 3 3 2 1 1 1 2 3 3 3 3 3 4 5 5 5 5 5 6 6 8 10 7 5 5 4 3 4 5 5 5 5 6 6 7 13 8 9 8 8 9 9 9 9 10 10 10 10 10 11 11 11 11 11 11 11 11 10 11
7 8 6 6 5 5 7 6 6 8 6 8 11 5 3 3 2 2 4 4 4 4 6 6 5 4 4 4 4 3 2 1 1 2 3 4 4 5 4 3 4 4 5 5 6 6 7 8 9 8 7 6 5 4 4 4 4 5 5 5 5 6 7 8 10 9 8 8 7 7 8 9 9 10 10 11 10 11 10 10 10 11 11 11 10 11 12
12 13 15 10 11 13 13 13 8 7 4 3 2 4 4 4 4 4 4 4 5 5 6 6 6 5 5 5 4 3 2 0 4 5 4 4 3 3 3 3 3 4 6 6 7 7 7 8 8 6 7 6 5 4 4 4 4 5 5 5 6 6 6 6 7 7 7 8 8 9 8 9 9 9 10 10 10 9 10 10 11 11 11 12 10 10 16
5 2 2 3 3 2 3 4 7 8 8 7 4 4 4 5 5 5 5 6 6 5 4 6 5 5 4 4 3 3 4 5 6 5 4 4 4 4 3 3 4 5 7 8 8 8 8 8 7 6 6 5 4 4 3 4 4 5 4 5 5 5 6 7 7 7 7 8 8 7 8 8 8 8 10 9 9 10 9 10 9 10 10 11 11 11 13
5 5 3 3 2 3 3 3 3 6 8 8 8 8 7 6 5 5 5 3 3 4 4 4 4 4 3 3 3 4 5 5 5 5 5 4 4 3 3 4 4 6 7 10 11 8 8 6 6 6 4 3 3 3 3 4 4 4 4 4 4 6 7 6 7 6 7 7 7 7 7 10 11 10 9 8 8 8 9 9 9 9 8 9 10 12 12
1 6 5 4 3 4 4 4 3 1 3 3 4 5 5 4 3 3 4 4 3 3 3 3 3 3 3 4 4 3 3 4 4 5 6 4 3 2 3 4 4 7 6 7 7 4 4 2 4 6 3 3 3 4 3 6 3 3 3 4 4 5 5 6 6 6 7 6 6 7 9 9 7 7 8 7 8 8 8 8 10 9 9 9 9 10 11
4 5 5 5 5 6 7 4 3 6 8 10 8 6 6 5 4 4 4 3 3 2 2 1 0 1 1 2 2 4 5 5 5 6 5 5 4 4 4 4 7 6 7 8 3 2 3 4 7 5 3 3 3 3 4 6 7 5 3 4 4 4 6 5 6 7 7 6 7 6 7 7 7 7 7 7 7 7 8 8 9 9 9 9 10 10 10
7 6 7 6 6 7 7 5 6 6 7 11 9 8 5 5 5 4 3 2 1 1 1 0 0 1 3 3 5 5 6 8 9 9 9 10 6 3 7 7 9 10 9 6 5 6 6 6 6 4 3 3 4 3 3 5 7 3 4 3 4 4 5 5 5 7 7 7 5 6 6 6 6 7 7 7 7 7 8 9 9 9 8 9 9 9 10
6 6 6 6 7 5 6 6 7 7 4 5 7 5 4 4 4 3 2 1 0 1 2 2 2 4 4 4 5 6 9 10 9 9 10 7 4 6 7 8 12 12 11 12 10 7 7 8 6 4 4 4 3 3 3 5 6 4 3 3 4 5 5 6 5 5 5 5 6 7 6 7 6 7 7 7 7 8 7 8 8 8 8 8 8 9 9
8 8 6 7 6 5 5 6 6 4 5 4 4 4 4 5 3 3 2 3 3 1 3 3 4 5 5 6 7 7 7 7 8 11 8 2 4 6 6 8 6 4 6 6 5 5 6 4 2 4 3 3 3 3 3 5 4 2 3 3 4 4 5 5 5 5 5 5 7 6 6 6 7 7 7 7 6 6 6 7 7 7 7 8 8 8 8
7 7 7 7 6 6 5 5 5 6 3 3 3 3 3 4 4 4 3 2 2 2 2 3 5 6 5 6 6 6 8 10 10 9 6 6 7 6 6 8 6 6 6 6 3 2 1 1 3 4 4 3 2 5 6 5 3 3 3 3 4 4 4 5 5 5 5 5 5 5 6 6 6 6 6 7 6 7 7 7 7 7 7 7 8 8 8
8 8 7 7 6 5 5 5 5 5 3 2 2 2 3 3 3 2 2 2 2 3 4 4 4 5 5 5 5 6 8 6 6 7 6 8 10 10 9 8 4 4 6 4 2 2 2 2 3 3 3 4 4 6 7 4 3 3 3 3 4 4 4 4 4 4 4 5 5 4 5 5 5 5 6 6 6 6 6 7 7 7 7 8 8 8 8
6 6 6 7 6 5 5 4 4 3 4 3 3 3 2 2 2 3 2 2 2 3 3 5 4 5 5 5 4 5 7 6 6 5 3 7 8 5 10 9 7 6 8 6 2 2 2 2 3 4 5 6 6 7 5 3 2 3 3 3 3 4 4 3 3 3 4 4 4 4 5 6 5 5 5 6 7 7 6 6 6 6 7 7 7 7 7
6 5 6 6 5 5 5 4 4 4 3 1 1 1 0 1 1 2 2 2 3 4 3 4 5 5 5 4 6 7 7 6 6 4 3 6 5 6 2 5 6 4 5 5 2 2 2 3 4 5 5 7 7 6 3 2 2 3 3 3 3 4 4 3 3 3 4 3 3 4 6 5 5 5 5 6 6 5 6 6 7 6 7 7 7 8 8
5 5 5 7 6 4 4 3 2 2 2 1 0 1 1 1 1 1 2 4 4 5 5 5 5 6 6 6 6 6 6 7 7 6 7 7 6 7 2 3 3 3 4 5 1 2 3 5 6 6 6 6 6 4 3 3 3 3 3 4 4 5 3 3 3 4 3 3 4 4 4 5 5 5 5 5 5 5 6 7 7 6 5 6 6 6 7
6 6 5 5 4 3 3 2 1 2 2 1 2 1 0 0 1 2 3 5 5 6 5 5 6 7 6 7 7 5 6 6 6 5 7 6 8 8 9 9 6 4 3 2 3 3 3 3 4 6 6 6 5 3 3 3 3 3 4 4 5 4 4 3 4 5 3 3 5 5 6 6 5 5 6 5 5 5 5 6 6 6 6 7 6 7 7
7 6 5 5 5 3 3 2 3 2 1 0 0 1 1 1 2 3 3 3 4 4 5 5 5 6 6 6 6 6 7 4 5 7 3 3 3 2 1 0 3 6 5 4 4 4 6 6 6 7 6 5 3 3 2 3 3 4 4 5 4 5 4 4 4 4 3 3 3 4 5 5 5 5 5 5 5 5 5 5 6 6 6 6 6 6 6
4 5 5 5 4 6 4 3 2 2 1 1 1 1 1 1 2 3 4 4 5 3 4 3 4 5 4 6 4 6 5 5 7 6 3 2 5 4 4 4 6 6 4 2 3 3 4 5 6 6 6 4 3 3 4 4 4 5 5 5 5 5 5 5 5 4 3 4 4 4 5 5 5 5 5 5 6 5 6 6 6 5 6 6 6 7 6
4 5 5 4 4 4 4 3 3 3 1 1 1 1 1 0 2 4 2 2 3 5 3 4 4 5 5 6 4 5 6 5 7 7 6 4 3 4 3 4 3 4 4 3 3 3 3 5 5 4 4 3 3 3 4 4 4 4 4 6 4 4 4 6 4 4 3 5 4 4 5 5 5 5 6 5 5 5 5 5 5 7 10 8 7 6 6
4 4 4 5 4 3 4 4 2 2 2 1 1 1 1 1 2 3 1 4 2 3 3 5 4 4 5 5 4 2 1 2 3 4 3 4 4 4 4 3 3 3 3 3 3 3 2 2 2 3 3 3 4 3 4 4 4 4 5 4 4 4 4 5 4 3 4 5 4 5 5 5 5 5 5 5 5 5 6 6 6 5 5 5 6 6 6
3 2 1 1 2 1 2 3 1 1 2 1 1 1 1 1 1 2 4 5 2 1 2 3 6 4 2 5 3 1 2 2 3 2 4 4 4 3 2 4 4 4 3 3 3 3 3 3 4 4 4 4 4 4 4 5 4 4 4 5 4 5 5 5 5 4 4 5 5 5 5 5 5 6 6 5 5 5 5 5 5 5 5 5 6 6 6
Wind_Direction
253 223 234 306 4 215 218 243 254 260 272 278 264 248 225 195 218 257 272 274 263 257 256 263 254 209 210 219 228 228 229 232 188 131 158 172 184 195 197 211 212 207 211 213 216 216 213 209 203 211 218 224 225 231 227 236 239 274 248 100 350 9 350 334 305 294 292 294 292 300 304 307 309 307 307 305 308 311 311 308 306 304 304 303 305 304 298
268 270 287 303 238 269 284 257 250 253 256 262 264 254 249 235 241 247 256 259 260 263 268 260 245 240 227 210 200 91 99 145 150 152 169 187 200 205 211 220 222 218 216 217 219 218 226 215 216 219 220 223 224 222 247 255 295 277 45 336 21 351 347 329 323 320 314 309 310 311 312 311 308 307 306 307 306 305 304 301 300 301 301 301 301 301 303
287 261 123 31 333 270 272 275 267 257 259 268 250 254 263 267 261 254 254 257 264 264 267 242 249 170 142 88 107 122 147 144 152 171 191 203 208 215 221 224 228 226 224 222 222 223 226 220 215 210 208 213 217 219 229 235 243 262 114 4 18 6 339 326 329 325 322 317 317 315 310 308 305 306 306 308 309 306 303 302 301 301 299 299 299 297 297
298 272 117 317 217 310 259 271 269 259 250 255 249 247 240 248 253 257 265 260 258 275 287 258 235 94 78 140 149 156 180 171 165 183 202 204 209 216 220 224 225 225 224 220 217 218 219 218 213 207 211 216 207 220 218 215 232 155 96 77 39 345 320 322 324 321 313 311 310 305 309 303 303 304 307 307 305 302 301 303 302 301 299 296 294 294 293
253 268 108 203 255 285 288 254 248 254 250 241 255 255 245 233 245 262 257 254 255 232 219 218 259 140 170 157 158 122 98 179 182 193 203 206 215 218 222 225 224 221 216 214 213 215 216 215 209 214 204 199 206 209 200 231 122 90 78 66 11 329 315 324 312 308 305 302 300 300 302 305 307 311 309 304 301 302 300 298 300 298 295 295 293 292 289
243 285 65 86 136 238 240 266 130 200 231 236 239 244 245 247 227 229 231 251 238 223 235 203 242 236 219 195 221 183 160 180 222 237 216 219 217 220 224 218 214 218 218 221 220 214 212 215 215 210 171 167 202 194 173 101 93 75 59 2 359 323 323 319 309 301 299 298 295 298 306 310 312 309 308 301 299 299 301 300 297 296 294 291 291 288 286
233 77 53 236 229 240 261 89 216 197 209 220 228 240 240 246 252 262 280 267 221 227 224 218 221 215 216 197 153 187 222 182 219 229 242 237 229 232 235 240 236 228 226 240 251 259 262 219 153 134 156 142 107 75 85 81 74 58 26 6 339 327 316 312 312 306 305 306 307 311 314 312 308 301 297 297 297 299 300 295 297 295 294 295 291 288 288
4 168 206 223 236 259 326 276 301 300 288 237 260 290 262 251 241 241 241 249 246 214 214 229 200 155 178 311 254 227 248 206 221 240 244 251 226 234 232 222 245 234 224 215 221 221 175 125 108 92 88 89 93 94 76 78 51 39 14 342 317 318 309 309 311 316 327 322 318 315 310 307 302 298 297 296 297 302 298 293 292 290 289 288 288 290 290
195 223 207 235 350 324 296 286 270 181 217 201 172 235 266 246 228 137 184 240 248 188 209 163 122 44 46 14 306 262 247 269 235 218 255 241 233 226 245 220 229 225 222 203 167 129 108 91 90 89 89 81 89 76 54 36 32 4 350 316 303 300 298 308 321 333 332 321 313 310 307 305 302 300 302 302 301 306 298 293 292 290 289 288 288 290 291
172 147 250 290 300 253 258 249 261 289 159 125 131 102 293 285 271 211 170 214 212 200 155 159 116 57 53 309 275 278 286 242 237 241 220 237 229 227 237 245 232 135 136 121 127 120 110 91 97 100 91 95 84 58 31 14 4 334 321 293 293 295 299 321 324 326 320 314 308 307 307 302 301 301 302 298 296 300 293 295 292 290 291 290 286 285 288
215 204 215 224 233 244 212 235 193 175 157 115 132 56 287 262 217 228 175 202 197 187 178 195 131 104 211 243 247 258 248 267 217 220 242 229 235 242 234 230 210 161 161 142 130 113 110 106 113 102 88 73 59 38 19 357 336 302 291 283 296 305 310 318 319 319 314 310 305 304 301 298 299 298 299 296 294 294 287 286 286 289 288 286 285 281 280
219 224 233 237 224 246 257 194 198 194 154 90 47 330 270 235 208 203 159 169 190 207 198 157 156 166 214 241 249 221 220 215 224 209 242 262 267 268 258 274 179 157 147 119 104 107 111 118 108 80 71 68 64 44 357 321 296 279 274 291 318 321 315 316 316 312 308 303 297 297 295 294 292 289 292 293 292 292 288 284 285 286 284 282 282 282 282
228 228 244 272 268 247 182 189 207 198 167 75 263 252 243 234 220 207 177 189 195 188 182 171 184 222 209 217 221 214 217 263 283 264 232 231 241 258 263 162 144 124 114 115 119 117 112 108 93 82 71 66 43 32 331 309 278 283 310 330 322 316 314 308 304 300 295 290 294 289 282 287 289 289 288 288 291 290 289 289 283 282 281 278 276 277 276
226 227 234 236 264 236 182 242 172 163 95 224 227 238 193 163 212 215 186 198 211 189 187 194 209 226 229 230 253 260 239 217 238 254 269 285 296 57 124 141 136 122 110 107 102 91 80 83 83 69 69 56 33 3 323 292 288 321 337 324 321 313 306 303 295 291 289 289 283 284 285 283 286 286 283 282 283 287 287 287 287 285 285 283 281 281 279
249 200 243 254 258 268 134 137 71 224 158 232 205 192 243 180 191 184 211 202 226 177 219 217 220 234 247 231 229 235 244 237 243 248 252 245 244 176 148 115 103 125 115 104 93 93 74 76 73 74 70 55 24 337 303 293 325 333 329 324 313 307 303 299 296 294 294 290 289 285 283 282 282 287 288 287 285 284 285 287 286 286 286 284 284 286 285
172 193 217 210 209 208 190 143 183 219 207 196 167 143 220 238 189 195 203 221 215 200 204 219 229 234 242 261 245 247 255 249 256 260 257 254 222 139 86 99 96 94 99 101 96 84 83 77 78 67 73 42 345 317 294 314 330 325 319 310 306 303 300 298 299 298 296 292 285 282 282 284 281 284 290 290 288 287 287 289 291 291 289 289 290 289 291
162 201 210 237 216 183 191 177 203 216 233 205 192 179 197 196 231 200 191 221 228 213 209 220 222 236 234 233 239 231 242 240 240 247 249 225 195 165 137 113 101 94 115 125 122 107 97 83 81 80 65 36 324 300 298 339 321 318 312 308 306 302 300 300 300 300 298 292 289 283 278 280 289 292 291 291 294 294 293 292 290 289 290 291 290 291 292
144 247 184 213 281 252 237 234 215 217 241 249 187 188 216 231 218 184 198 222 230 230 209 208 235 227 235 236 240 230 234 233 247 245 222 111 91 103 110 110 105 116 115 107 109 115 45 84 83 72 54 21 305 285 308 320 309 307 308 309 306 303 303 302 302 304 303 298 286 282 284 281 279 284 289 297 296 297 295 290 289 288 290 290 287 287 286
358 281 215 194 229 248 253 243 225 236 230 235 215 203 212 229 230 228 220 221 226 228 212 206 221 230 221 219 226 219 228 232 240 222 176 144 141 140 128 143 135 108 100 84 65 93 93 156 90 35 354 282 264 286 297 300 306 304 304 302 300 302 304 304 303 303 299 301 302 297 292 290 284 284 289 288 291 293 292 290 288 286 286 288 288 284 281
225 247 225 222 228 231 240 240 231 234 237 240 238 223 227 229 236 226 225 213 228 221 224 217 215 228 220 209 224 227 227 232 231 180 159 155 134 136 140 141 124 118 105 121 229 271 271 205 21 302 295 281 278 283 288 293 297 302 299 296 299 302 303 303 301 301 297 295 298 301 299 297 298 294 282 283 289 288 289 286 287 286 285 286 284 283 283
243 265 265 253 259 269 267 254 236 232 236 232 234 233 232 236 238 240 237 200 210 203 220 210 205 218 231 213 218 226 232 198 157 166 162 163 161 159 144 143 124 122 147 230 225 218 262 254 287 302 287 284 285 291 294 298 298 302 296 293 293 296 297 301 300 297 294 297 298 299 299 294 277 276 291 294 285 277 261 257 268 277 280 281 280 283 284
243 235 241 190 212 253 251 246 242 240 233 221 230 238 240 234 231 230 231 239 225 215 210 200 195 204 224 223 199 214 205 188 172 158 159 162 158 157 147 128 117 124 135 167 194 257 276 275 285 293 291 287 290 292 295 291 293 294 296 299 300 299 301 302 300 300 299 298 297 297 295 297 298 284 270 292 291 289 289 288 290 292 293 292 292 293 292
245 244 245 208 218 242 247 246 240 234 235 216 220 231 236 237 231 226 220 228 241 230 239 206 185 205 210 222 182 181 177 192 181 170 163 166 171 173 152 100 3 153 178 157 273 289 279 289 297 291 290 288 291 290 284 284 285 285 292 300 301 302 309 305 305 304 304 301 299 297 295 297 295 298 301 286 286 290 291 294 296 297 297 297 298 300 300
252 255 255 202 202 227 242 243 240 239 230 214 219 227 228 230 228 216 207 207 207 226 213 224 208 197 204 194 171 195 190 165 156 157 147 140 150 155 152 170 189 173 254 275 268 273 286 294 294 292 290 286 285 282 280 278 277 276 282 289 302 305 305 303 304 302 299 299 300 300 300 297 298 302 302 303 295 289 295 300 301 300 300 300 302 303 303
248 249 258 199 208 233 243 245 238 236 236 208 214 225 225 226 231 209 201 215 214 202 197 204 225 204 176 185 174 182 182 183 169 161 152 146 159 156 185 161 176 213 248 234 255 286 295 295 294 292 287 285 282 278 276 275 276 278 279 284 295 300 299 300 301 301 301 301 300 301 302 304 303 303 303 303 303 306 304 304 306 304 303 303 305 306 306
249 256 261 259 227 239 249 270 262 243 241 222 223 243 235 219 219 204 210 208 204 192 186 182 177 208 155 160 159 142 136 161 160 138 137 165 184 183 223 228 237 122 45 343 306 293 292 286 283 285 282 281 279 276 274 273 274 276 285 286 286 292 298 300 302 301 301 300 301 300 297 298 297 300 297 295 296 299 307 312 316 313 310 310 309 311 310
242 241 250 277 272 263 249 239 252 255 248 225 215 230 228 207 196 166 89 79 124 136 157 164 150 139 96 118 129 140 162 157 119 144 155 187 218 217 159 96 67 26 347 320 300 286 287 290 287 282 277 277 275 272 273 276 284 287 288 292 292 290 293 298 291 294 296 297 298 296 297 297 299 298 295 296 298 301 304 307 308 308 308 313 314 316 315
236 225 190 220 243 250 253 247 242 251 258 245 229 209 172 126 122 139 147 138 121 84 80 111 134 137 136 149 134 148 136 168 197 201 184 208 186 77 62 48 24 6 325 303 287 284 281 277 277 277 275 277 276 272 275 278 283 287 290 294 294 293 295 297 295 290 293 294 293 295 295 294 296 296 298 298 299 298 299 297 298 300 302 304 304 308 312
237 227 215 220 235 248 270 37 268 231 242 299 80 122 134 156 187 186 205 196 171 138 148 110 91 138 148 164 150 171 184 188 204 219 208 88 70 45 26 12 2 327 298 280 276 272 274 271 272 276 278 281 274 270 271 281 286 288 294 295 295 293 292 294 292 292 295 294 292 293 299 301 300 299 297 297 295 296 297 299 300 299 300 304 309 308 314
242 239 228 233 236 249 258 260 247 238 228 197 170 184 191 170 184 217 211 191 173 192 183 146 133 140 130 148 161 166 184 204 204 166 45 350 1 348 355 332 321 279 256 256 258 266 278 282 281 276 277 280 276 282 289 292 289 288 287 286 282 285 284 292 299 304 302 300 300 303 302 299 298 297 297 297 298 300 301 301 304 307 308 308 311 308 313
246 230 229 232 231 221 219 237 241 238 216 187 190 182 199 207 217 218 212 182 179 194 159 167 168 161 159 166 158 130 127 129 144 206 267 278 294 293 292 297 288 287 280 278 281 280 279 278 274 273 275 279 281 287 292 292 293 295 293 289 282 294 304 309 309 306 302 303 302 303 302 304 303 303 302 303 305 304 304 304 305 303 300 303 305 307 309
257 230 210 225 219 226 238 245 246 229 207 173 151 197 202 191 206 217 198 192 206 178 159 157 170 182 184 168 145 138 132 134 185 267 276 281 275 270 262 251 246 259 267 270 270 270 270 271 271 271 279 281 283 283 277 287 291 293 290 296 300 304 305 311 309 305 303 301 301 299 301 306 306 306 304 304 304 307 308 309 307 309 308 308 308 311 317
229 257 270 253 257 260 256 246 209 228 190 194 212 209 181 206 206 193 194 165 136 157 164 176 168 159 156 145 136 139 149 148 278 277 274 272 268 264 259 249 241 248 260 262 265 267 266 265 266 274 278 277 278 272 269 271 276 281 285 291 292 299 303 308 310 309 304 297 294 294 302 303 302 302 300 303 306 308 309 307 306 308 309 309 310 312 316
207 218 232 231 199 215 225 237 212 221 209 199 172 165 163 168 162 149 144 149 149 155 168 164 157 151 140 142 151 149 142 217 277 262 244 244 250 259 256 257 270 274 275 278 275 270 264 257 258 264 269 275 271 270 270 271 278 278 284 290 297 302 306 306 311 305 301 300 296 300 300 299 300 302 305 309 310 311 313 314 313 312 312 315 313 312 319
208 212 125 129 120 158 171 184 178 192 186 185 185 181 171 156 155 158 154 153 167 170 153 134 131 138 141 145 155 181 188 220 244 255 257 255 255 253 262 297 310 303 291 280 269 264 255 255 252 255 261 260 263 265 272 282 281 285 287 289 293 298 300 307 306 305 305 302 303 305 311 307 303 304 308 309 309 311 311 311 311 315 316 317 316 320 322
139 140 117 93 96 110 113 136 171 174 181 190 186 174 167 166 144 140 145 140 112 113 119 127 133 129 140 162 195 213 229 241 244 250 258 257 263 281 298 298 291 289 285 290 277 259 254 247 244 242 252 272 281 279 276 273 277 281 287 295 302 304 301 298 297 298 295 297 303 309 306 307 310 310 311 311 311 311 313 314 315 316 314 317 320 324 323
103 147 141 127 102 92 77 56 30 86 117 116 118 121 116 103 105 84 76 77 74 80 95 98 105 141 198 217 214 238 243 245 248 251 254 256 262 273 270 272 269 267 274 283 275 249 246 231 252 280 291 293 284 278 276 291 292 289 297 303 300 302 304 303 300 301 300 301 304 309 309 309 306 307 311 313 312 314 316 318 320 320 323 322 325 324 328
68 94 115 117 111 92 76 57 56 81 94 78 62 82 106 102 89 84 75 74 72 63 64 89 147 226 247 246 242 244 255 257 254 257 260 265 260 268 267 249 263 250 253 244 245 275 274 276 292 293 287 275 271 270 278 299 316 314 304 299 303 302 303 297 302 301 304 305 315 313 307 308 310 314 314 313 309 313 318 320 322 325 328 331 329 329 330
93 83 87 92 91 89 89 64 56 53 82 106 101 81 81 97 88 87 77 71 54 75 63 346 321 258 258 252 260 266 264 260 261 263 267 268 266 241 250 237 243 239 242 255 275 272 274 279 270 270 274 268 269 274 283 303 317 311 297 302 303 298 293 295 297 298 297 308 316 310 310 311 312 314 314 314 314 316 319 324 326 326 331 332 334 334 335
107 104 111 107 98 99 92 84 73 77 80 104 109 116 116 99 102 105 111 92 290 167 186 194 206 226 248 244 250 257 260 260 260 261 261 264 274 274 277 268 255 255 251 254 254 254 255 253 262 269 267 264 266 272 277 306 317 308 311 305 299 294 288 292 295 295 300 318 314 314 313 314 317 314 311 310 313 318 323 326 332 332 334 332 334 335 335
121 120 112 106 113 108 109 108 101 99 102 99 107 126 131 131 133 129 186 205 219 178 202 198 208 234 236 239 242 250 260 264 260 255 256 265 272 259 262 278 264 237 241 243 233 225 234 240 246 262 266 267 265 289 294 307 308 300 301 303 293 290 292 298 292 299 309 314 312 312 313 317 314 314 310 311 314 316 319 325 329 329 328 332 332 333 336
128 120 117 113 114 120 116 115 117 110 113 139 154 151 155 153 149 176 202 200 210 218 219 236 222 233 243 246 251 257 261 261 263 268 251 226 240 243 253 266 266 267 249 223 217 211 232 249 264 264 262 273 267 296 311 311 304 304 299 292 282 282 287 289 290 296 300 297 294 299 307 308 307 308 309 311 317 322 325 327 327 329 331 330 331 331 332
129 128 128 125 124 124 128 126 124 134 120 134 159 167 179 167 167 185 191 207 217 235 243 246 250 258 259 258 256 261 262 266 265 265 271 254 232 224 224 254 262 253 266 275 255 239 251 243 251 249 268 281 297 311 316 303 295 298 291 280 282 287 283 279 288 296 304 302 306 307 308 307 310 311 314 316 313 315 321 326 326 327 329 327 327 330 334
119 116 126 130 131 127 116 114 108 104 110 115 116 124 130 155 172 185 203 219 245 240 236 255 253 252 251 241 231 246 260 255 260 255 251 293 295 250 216 234 255 259 263 253 254 249 259 257 249 257 274 299 307 312 309 286 281 285 277 278 283 284 281 286 294 300 298 307 313 309 305 308 309 306 311 315 316 319 322 321 318 322 323 323 322 324 328
122 131 130 124 120 118 123 131 148 161 151 122 50 327 271 219 231 203 198 219 235 249 240 243 253 257 256 243 237 243 247 247 239 242 266 284 292 292 252 212 228 229 237 249 249 254 258 258 264 277 292 301 306 310 296 281 281 282 279 285 282 278 280 290 294 297 297 298 297 297 298 296 294 298 299 299 304 312 316 318 317 320 321 323 328 332 334
116 113 116 113 112 123 128 137 131 121 105 95 12 313 284 223 226 226 196 206 228 242 238 241 242 250 248 253 260 266 266 261 252 231 226 219 232 251 251 231 204 216 238 252 248 248 255 266 281 289 294 300 306 305 289 283 281 281 281 285 279 277 283 287 288 285 287 292 295 297 296 294 299 298 297 295 303 308 309 314 313 312 313 317 321 323 323
121 115 114 119 122 114 102 100 112 117 110 93 55 25 311 265 241 240 232 218 220 243 253 249 248 252 249 237 236 254 269 283 284 248 229 237 242 251 261 261 263 259 275 258 245 253 255 266 276 285 290 294 302 297 284 275 269 268 273 277 273 274 278 280 281 277 280 284 293 295 300 297 296 296 303 308 311 310 310 313 314 315 317 321 322 327 327
132 132 136 133 135 141 108 106 105 113 140 178 199 229 264 280 291 286 281 273 255 252 257 259 251 258 256 251 237 225 223 224 280 297 268 230 224 215 261 29 282 278 274 267 275 272 280 283 286 289 286 288 289 290 279 269 272 273 273 269 273 272 268 271 275 275 285 294 305 304 298 295 294 296 301 302 303 304 301 305 308 313 316 320 319 321 321
119 130 136 125 133 138 146 145 144 169 232 229 185 251 265 295 311 312 309 305 314 309 275 269 269 273 271 257 236 232 226 206 197 235 260 286 306 291 281 278 284 278 271 253 261 259 264 276 286 289 287 279 270 267 267 269 270 272 267 269 265 265 267 265 261 266 283 294 294 290 286 284 290 295 299 301 302 299 303 305 306 305 309 315 316 316 319
120 109 125 147 160 170 170 165 186 203 226 159 196 249 278 58 8 309 284 295 288 282 295 300 298 297 288 297 273 243 222 214 225 237 252 266 270 277 267 251 244 256 258 251 251 255 257 269 279 283 275 263 253 258 257 267 264 263 263 264 265 266 261 266 276 292 291 289 285 282 283 284 285 289 293 293 293 295 298 298 299 304 312 313 308 312 315
155 160 180 186 197 200 189 182 189 184 187 209 228 251 250 242 229 262 289 297 322 331 314 312 300 295 307 311 295 278 265 261 262 274 278 277 278 277 280 283 279 271 262 255 248 252 258 266 273 272 264 259 257 256 259 259 260 262 262 267 265 268 271 278 283 283 276 270 270 277 280 284 285 289 284 286 292 297 298 302 302 304 305 304 306 306 306
167 172 165 162 155 167 198 238 257 222 208 216 209 228 244 228 252 293 303 304 326 300 302 321 320 302 291 297 292 302 307 304 284 282 290 285 287 288 292 284 277 264 260 262 279 275 274 272 274 276 278 276 269 264 260 256 258 262 263 262 266 266 271 274 272 271 270 269 269 275 278 278 281 282 283 283 285 288 294 295 294 294 296 297 298 298 299